Regional Weather Roundup
Issued by NWS

Home | Current Version | Previous Version | Text Only | Print | Product List | Glossary On
Versions: 1 2 3 4 5 6 7 8 9 10 11 12 13 14 15 16 17 18 19 20 21 22 23 24 25 26 27 28 29 30 31 32 33 34 35 36 37 38 39 40 41 42 43 44 45 46 47 48 49 50
000
ASUS44 KOUN 230110
RWROK

WEATHER ROUNDUP FOR OKLAHOMA
NATIONAL WEATHER SERVICE NORMAN OK
800 PM CDT MON SEP 22 2014

NOTE: "FAIR" INDICATES FEW OR NO CLOUDS BELOW 12,000 FEET WITH NO
      SIGNIFICANT WEATHER AND/OR OBSTRUCTIONS TO VISIBILITY.

OKZ001>007-009>012-014-015-017-230200-
NORTHWEST OKLAHOMA AND THE PANHANDLE

CITY           SKY/WX    TMP DP  RH WIND       PRES   REMARKS
GAGE           PTCLDY    68  53  58 SE6       30.17S
ENID/WOODRING  MOCLDY    72  50  46 SE7       30.16F
$$

OKZ016-021>023-033>039-044-045-230200-
SOUTHWEST OKLAHOMA

CITY           SKY/WX    TMP DP  RH WIND       PRES   REMARKS
LAWTON/REGL    CLEAR     73  52  47 E6        30.15R
LAWTON/FT SILL CLEAR     74  49  41 E6        30.15R
FREDERICK      CLEAR     74  53  48 E7        30.13R
CLINTON        CLEAR     74  46  36 E7        30.20R
HOBART         CLEAR     75  46  35 E7        30.17R
ALTUS AFB      CLEAR     74  53  48 SE5       30.16R
$$

OKZ018>020-024>031-230200-
CENTRAL OKLAHOMA

CITY           SKY/WX    TMP DP  RH WIND       PRES   REMARKS
OKLAHOMA CITY  MOCLDY    70  49  47 SE7       30.17S
OKC/WILEY POST PTCLDY    73  50  44 E9        30.18R
OKC/TINKER AFB PTCLDY    68  50  52 E6        30.18R
STILLWATER     CLEAR     67  48  50 E6        30.18S
GUTHRIE        PTCLDY    68  51  54 SE6       30.18R
$$

OKZ008-013-054>072-230200-
NORTHEAST OKLAHOMA

CITY           SKY/WX    TMP DP  RH WIND       PRES   REMARKS
TULSA          PTCLDY    70  52  52 E5        30.18S
TULSA/JONES    CLEAR     64  54  69 CALM      30.18R
PONCA CITY     CLEAR     69  49  48 E6        30.19R
BARTLESVILLE   CLEAR     57  55  93 CALM      30.20S
MUSKOGEE       PTCLDY    68  55  63 CALM      30.19R
$$

OKZ032-040>043-046>053-073>077-230200-
SOUTH CENTRAL/SOUTHEAST OKLAHOMA

CITY           SKY/WX    TMP DP  RH WIND       PRES   REMARKS
ARDMORE/DWNTWN PTCLDY    72  50  46 E3        30.15R
MCALESTER      PTCLDY    68  53  58 CALM      30.18R
$$




USA.gov is the U.S. government's official web portal to all federal, state and local government web resources and services.